• In Österreich
  • Länderverzeichnis
  • Für 7 Tage
  • Wassertemperatur
  • Satellitenkarten
  • Wetterkarte
  • News
  • Widgets
  • user-avatar
    Anmelden

    Stündliche Wetter Skawina

    Heute, 23 April, Montag

    Zeit Temperatur Niederschläge Wind Luftdruck Luftfeuchtigkeit
    00:00 +12°C° 0 mm 1 m/S 741 mmHg 61%
    01:00 +12°C° 0 mm 1 m/S 741 mmHg 58%
    02:00 +12°C° 0 mm 1 m/S 740 mmHg 58%
    03:00 +11°C° 0 mm 1 m/S 740 mmHg 59%
    04:00 +11°C° 0 mm 1 m/S 740 mmHg 60%
    05:00 +13°C° 0 mm 1 m/S 740 mmHg 58%
    06:00 +15°C° 0 mm 1 m/S 740 mmHg 56%
    07:00 +16°C° 0 mm 1 m/S 740 mmHg 53%
    08:00 +19°C° 0 mm 1 m/S 740 mmHg 50%
    09:00 +20°C° 0 mm 2 m/S 740 mmHg 46%
    10:00 +23°C° 0 mm 2 m/S 740 mmHg 43%
    11:00 +24°C° 0 mm 2 m/S 740 mmHg 41%
    12:00 +26°C° 0 mm 3 m/S 739 mmHg 40%
    13:00 +27°C° 0 mm 3 m/S 739 mmHg 38%
    14:00 +26°C° 0 mm 3 m/S 739 mmHg 42%
    15:00 +26°C° 0 mm 3 m/S 738 mmHg 46%
    16:00 +25°C° 0 mm 3 m/S 738 mmHg 50%
    17:00 +22°C° 0,3 mm 3 m/S 738 mmHg 56%
    18:00 +21°C° 0,3 mm 3 m/S 738 mmHg 63%
    19:00 +19°C° 0,3 mm 3 m/S 738 mmHg 70%
    20:00 +18°C° 0,4 mm 3 m/S 738 mmHg 74%
    21:00 +17°C° 0,4 mm 2 m/S 738 mmHg 79%
    22:00 +17°C° 0,4 mm 2 m/S 738 mmHg 84%
    23:00 +16°C° 0,1 mm 2 m/S 739 mmHg 86%

    Morgen, 24 April, Dienstag

    Zeit Temperatur Niederschläge Wind Luftdruck Luftfeuchtigkeit
    00:00 +16°C° 0,1 mm 2 m/S 739 mmHg 88%
    01:00 +15°C° 0,1 mm 2 m/S 739 mmHg 90%
    02:00 +15°C° 0 mm 2 m/S 739 mmHg 91%
    03:00 +14°C° 0 mm 2 m/S 740 mmHg 93%
    04:00 +14°C° 0 mm 2 m/S 740 mmHg 94%
    05:00 +15°C° 0 mm 2 m/S 740 mmHg 91%
    06:00 +15°C° 0 mm 2 m/S 741 mmHg 88%
    07:00 +15°C° 0 mm 2 m/S 741 mmHg 85%
    08:00 +17°C° 0 mm 3 m/S 741 mmHg 77%
    09:00 +18°C° 0 mm 3 m/S 742 mmHg 68%
    10:00 +19°C° 0 mm 3 m/S 742 mmHg 60%
    11:00 +20°C° 0 mm 3 m/S 742 mmHg 56%
    12:00 +21°C° 0 mm 4 m/S 741 mmHg 52%
    13:00 +21°C° 0 mm 4 m/S 741 mmHg 48%
    14:00 +21°C° 0 mm 4 m/S 741 mmHg 48%
    15:00 +22°C° 0 mm 4 m/S 740 mmHg 48%
    16:00 +22°C° 0 mm 4 m/S 740 mmHg 49%
    17:00 +20°C° 0 mm 3 m/S 740 mmHg 54%
    18:00 +18°C° 0 mm 2 m/S 740 mmHg 60%
    19:00 +17°C° 0 mm 2 m/S 740 mmHg 66%
    20:00 +16°C° 0 mm 2 m/S 740 mmHg 69%
    21:00 +16°C° 0 mm 2 m/S 740 mmHg 71%
    22:00 +15°C° 0 mm 2 m/S 740 mmHg 73%
    23:00 +15°C° 0 mm 2 m/S 740 mmHg 75%

    übermorgen, 25 April, Mittwoch

    Zeit Temperatur Niederschläge Wind Luftdruck Luftfeuchtigkeit
    00:00 +14°C° 0 mm 2 m/S 740 mmHg 77%
    01:00 +14°C° 0 mm 2 m/S 740 mmHg 79%
    02:00 +13°C° 0 mm 2 m/S 740 mmHg 81%
    03:00 +13°C° 0 mm 2 m/S 740 mmHg 82%
    04:00 +13°C° 0 mm 2 m/S 740 mmHg 83%
    05:00 +14°C° 0 mm 2 m/S 740 mmHg 79%
    06:00 +15°C° 0 mm 2 m/S 740 mmHg 74%
    07:00 +17°C° 0 mm 2 m/S 740 mmHg 69%
    08:00 +19°C° 0 mm 3 m/S 740 mmHg 62%
    09:00 +20°C° 0 mm 4 m/S 740 mmHg 55%
    10:00 +22°C° 0 mm 4 m/S 740 mmHg 48%
    11:00 +23°C° 0 mm 5 m/S 739 mmHg 45%
    12:00 +24°C° 0 mm 6 m/S 739 mmHg 42%
    13:00 +24°C° 0 mm 6 m/S 739 mmHg 39%
    14:00 +24°C° 0 mm 6 m/S 738 mmHg 42%
    15:00 +24°C° 0 mm 6 m/S 738 mmHg 45%
    16:00 +24°C° 0 mm 6 m/S 737 mmHg 48%
    17:00 +22°C° 0 mm 5 m/S 737 mmHg 53%
    18:00 +21°C° 0 mm 4 m/S 737 mmHg 59%
    19:00 +19°C° 0 mm 4 m/S 737 mmHg 65%
    20:00 +19°C° 0 mm 4 m/S 737 mmHg 68%
    21:00 +18°C° 0 mm 4 m/S 737 mmHg 71%
    22:00 +17°C° 0 mm 4 m/S 738 mmHg 74%
    23:00 +16°C° 0 mm 3 m/S 738 mmHg 78%

    26 April, Donnerstag

    Zeit Temperatur Niederschläge Wind Luftdruck Luftfeuchtigkeit
    00:00 +15°C° 0 mm 2 m/S 738 mmHg 81%
    01:00 +15°C° 0 mm 2 m/S 738 mmHg 85%
    02:00 +14°C° 0 mm 2 m/S 738 mmHg 87%
    03:00 +14°C° 0 mm 2 m/S 738 mmHg 89%
    04:00 +13°C° 0 mm 2 m/S 738 mmHg 91%
    05:00 +14°C° 0 mm 2 m/S 739 mmHg 85%
    06:00 +15°C° 0 mm 2 m/S 739 mmHg 80%
    07:00 +16°C° 0 mm 2 m/S 739 mmHg 75%
    08:00 +17°C° 0 mm 2 m/S 739 mmHg 70%
    09:00 +18°C° 0 mm 2 m/S 739 mmHg 64%
    10:00 +20°C° 0 mm 3 m/S 739 mmHg 59%
    11:00 +20°C° 0 mm 3 m/S 739 mmHg 56%
    12:00 +20°C° 0 mm 3 m/S 739 mmHg 53%
    13:00 +21°C° 0 mm 3 m/S 738 mmHg 51%
    14:00 +19°C° 0,3 mm 4 m/S 738 mmHg 58%
    15:00 +17°C° 0,3 mm 4 m/S 738 mmHg 66%
    16:00 +15°C° 0,3 mm 4 m/S 738 mmHg 74%
    17:00 +14°C° 0,5 mm 3 m/S 738 mmHg 78%
    18:00 +13°C° 0,5 mm 3 m/S 739 mmHg 83%
    19:00 +12°C° 0,5 mm 3 m/S 739 mmHg 88%
    20:00 +12°C° 0,3 mm 3 m/S 740 mmHg 87%
    21:00 +11°C° 0,3 mm 3 m/S 740 mmHg 87%
    22:00 +11°C° 0,3 mm 3 m/S 740 mmHg 87%
    23:00 +11°C° 0,1 mm 3 m/S 741 mmHg 86%

    27 April, Freitag

    Zeit Temperatur Niederschläge Wind Luftdruck Luftfeuchtigkeit
    00:00 +10°C° 0,1 mm 3 m/S 741 mmHg 84%
    01:00 +10°C° 0,1 mm 2 m/S 741 mmHg 83%
    02:00 +9°C° 0 mm 2 m/S 741 mmHg 83%
    03:00 +8°C° 0 mm 2 m/S 741 mmHg 84%
    04:00 +7°C° 0 mm 2 m/S 741 mmHg 84%
    05:00 +8°C° 0 mm 2 m/S 741 mmHg 78%
    06:00 +9°C° 0 mm 2 m/S 742 mmHg 72%
    07:00 +10°C° 0 mm 2 m/S 742 mmHg 66%
    08:00 +12°C° 0 mm 2 m/S 742 mmHg 59%
    09:00 +14°C° 0 mm 2 m/S 742 mmHg 53%
    10:00 +15°C° 0 mm 2 m/S 742 mmHg 46%
    11:00 +16°C° 0 mm 2 m/S 742 mmHg 43%
    12:00 +17°C° 0 mm 2 m/S 742 mmHg 41%
    13:00 +17°C° 0 mm 2 m/S 742 mmHg 38%
    14:00 +18°C° 0 mm 2 m/S 741 mmHg 38%
    15:00 +19°C° 0 mm 1 m/S 741 mmHg 37%
    16:00 +19°C° 0 mm 1 m/S 741 mmHg 36%
    17:00 +16°C° 0 mm 1 m/S 741 mmHg 43%
    18:00 +14°C° 0 mm 2 m/S 741 mmHg 50%
    19:00 +13°C° 0 mm 2 m/S 741 mmHg 57%
    20:00 +12°C° 0 mm 2 m/S 741 mmHg 61%
    21:00 +10°C° 0 mm 3 m/S 741 mmHg 64%
    22:00 +9°C° 0 mm 3 m/S 741 mmHg 67%
    23:00 +9°C° 0 mm 3 m/S 741 mmHg 69%

    28 April, Samstag

    Zeit Temperatur Niederschläge Wind Luftdruck Luftfeuchtigkeit
    00:00 +9°C° 0 mm 3 m/S 741 mmHg 71%
    01:00 +9°C° 0 mm 3 m/S 741 mmHg 73%
    02:00 +8°C° 0 mm 2 m/S 740 mmHg 74%
    03:00 +8°C° 0 mm 2 m/S 740 mmHg 76%
    04:00 +8°C° 0 mm 2 m/S 740 mmHg 78%
    05:00 +10°C° 0 mm 2 m/S 740 mmHg 73%
    06:00 +12°C° 0 mm 2 m/S 740 mmHg 68%
    07:00 +14°C° 0 mm 2 m/S 740 mmHg 64%
    08:00 +16°C° 0 mm 2 m/S 740 mmHg 58%
    09:00 +18°C° 0 mm 2 m/S 740 mmHg 53%
    10:00 +20°C° 0 mm 2 m/S 740 mmHg 48%
    11:00 +21°C° 0 mm 2 m/S 739 mmHg 45%
    12:00 +24°C° 0 mm 2 m/S 739 mmHg 42%
    13:00 +25°C° 0 mm 2 m/S 739 mmHg 38%
    14:00 +25°C° 0 mm 2 m/S 739 mmHg 40%
    15:00 +25°C° 0 mm 2 m/S 738 mmHg 41%
    16:00 +25°C° 0 mm 2 m/S 738 mmHg 42%
    17:00 +23°C° 0 mm 1 m/S 738 mmHg 49%
    18:00 +21°C° 0 mm 1 m/S 738 mmHg 56%
    19:00 +19°C° 0 mm 1 m/S 738 mmHg 63%
    20:00 +18°C° 0 mm 1 m/S 738 mmHg 67%
    21:00 +16°C° 0 mm 1 m/S 738 mmHg 70%
    22:00 +16°C° 0 mm 1 m/S 738 mmHg 74%
    23:00 +15°C° 0 mm 1 m/S 738 mmHg 76%
    Mehr zeigen